CAPE
5 6 3 4 2 6 4 4 2 2 1 2 2 2 0 1 0 0 0 0 0 0 0 0 0 0 0 0 333 632 644 408 269 237 219 272 169 373 378 375 782 740 982 784 923
7 5 7 7 2 2 2 2 2 2 1 1 2 1 0 0 0 0 0 0 0 0 0 0 0 0 3 0 88 458 769 357 210 92 199 263 256 376 355 469 845 1238 1275 801 836
6 7 6 6 1 2 2 5 1 2 4 2 2 0 0 0 0 0 0 0 0 0 0 0 0 0 16 32 29 273 305 122 161 234 98 185 254 274 272 229 692 1293 1511 1015 851
7 6 7 5 3 2 3 2 2 4 1 2 1 0 0 0 0 0 0 238 123 0 0 0 0 2 36 63 15 85 10 72 43 82 216 281 375 401 338 191 450 1461 1602 1315 1067
7 8 7 7 5 3 5 2 2 3 3 3 1 0 0 0 0 0 0 243 0 0 0 0 0 8 27 12 10 59 0 0 8 91 270 293 386 448 510 446 471 1446 1676 1626 1285
9 11 13 11 5 3 2 2 2 2 2 3 0 0 0 0 0 0 0 0 0 0 0 0 0 0 9 26 26 3 0 3 10 49 99 229 319 454 433 622 660 1273 1515 1594 1424
11 12 14 9 4 4 2 3 1 2 3 1 0 0 0 0 0 0 0 0 0 0 0 0 0 0 7 20 0 0 12 8 38 71 135 103 170 268 822 947 845 1172 1308 1487 1468
10 9 10 6 3 3 2 0 0 2 0 0 0 0 0 0 0 0 0 0 0 0 0 0 0 0 0 1 0 4 30 59 31 10 263 77 376 472 738 982 1100 1099 1340 1436 1636
11 10 5 7 5 3 0 0 0 0 0 0 0 0 0 0 0 0 0 0 0 0 0 0 0 0 0 0 19 19 43 73 41 4 177 106 239 578 604 758 1240 1347 1506 1558 1879
12 11 9 6 3 0 0 0 0 0 0 0 0 0 0 0 0 0 0 0 0 0 0 0 0 2 4 25 81 61 102 88 53 88 27 143 175 489 536 705 894 1434 1623 1858 2059
10 10 7 4 2 0 0 0 0 0 0 0 0 0 0 0 0 0 0 0 0 0 0 0 0 10 32 27 41 38 1 51 66 45 120 184 222 292 603 723 1056 972 1618 1889 2205
10 7 5 2 1 1 0 0 0 0 0 0 0 0 0 0 0 0 0 0 0 0 0 0 0 5 38 6 0 8 23 44 85 61 63 134 307 186 312 386 564 868 1062 1770 1942
11 8 3 1 0 0 0 0 0 0 0 0 0 0 0 0 0 0 0 0 0 0 0 0 0 1 4 0 0 2 64 67 37 73 11 93 327 364 263 365 536 787 866 1339 1704
10 8 5 0 0 0 0 0 0 0 0 0 0 0 0 0 0 0 0 0 0 0 0 0 0 0 0 0 0 20 16 0 1 20 96 134 392 71 592 446 691 604 974 1267 1300
11 9 4 1 0 0 0 0 0 0 0 0 0 0 0 0 0 0 0 0 0 0 0 0 0 0 0 0 2 14 0 0 3 47 89 259 171 497 355 280 169 390 603 677 1278
10 9 5 0 0 0 0 0 0 0 0 0 0 0 0 0 0 0 0 0 0 0 0 0 0 0 0 0 0 3 0 0 7 88 138 112 245 107 175 210 156 155 476 723 1244
3 1 7 0 0 0 0 0 0 0 0 0 0 0 0 0 0 0 0 0 0 0 0 0 0 0 0 0 0 0 0 34 183 222 205 215 315 71 20 30 95 110 50 1044 1569
0 0 0 0 0 0 0 0 0 0 0 0 0 0 0 0 0 0 0 0 0 0 0 0 0 0 0 0 0 0 0 80 301 314 181 89 403 249 20 0 0 0 45 1029 1470
0 0 0 0 0 0 1 0 0 8 9 0 0 0 0 0 0 0 0 0 0 0 0 0 0 0 0 0 0 0 0 10 208 202 163 85 100 126 3 7 3 132 263 583 1305
0 6 15 0 0 4 51 0 86 8 0 0 0 0 0 0 0 0 0 0 0 0 0 0 0 0 0 0 0 0 45 90 128 102 142 185 78 185 65 18 32 119 218 465 1266
0 159 0 0 1 70 54 77 1 0 0 0 2 0 0 0 0 0 0 0 0 0 0 0 0 0 0 0 0 0 11 61 259 244 197 193 174 30 32 36 21 68 204 422 1273
135 211 0 0 67 84 72 80 0 0 0 0 0 0 0 0 0 0 0 0 0 0 0 0 0 0 0 0 0 0 0 11 83 133 85 229 182 76 31 9 0 253 358 694 1378
249 0 0 0 163 207 30 13 0 0 0 0 0 0 7 0 0 0 0 0 0 0 0 0 0 0 0 0 0 0 0 31 49 117 225 202 165 108 196 204 196 574 642 998 1496
318 78 0 0 16 61 38 1 0 0 0 0 4 0 0 4 5 0 0 0 0 0 0 0 0 0 0 0 0 0 0 0 22 80 113 115 106 95 115 269 351 501 864 1179 1600
572 641 151 51 0 0 5 14 0 1 0 0 0 6 59 134 96 90 0 13 0 0 0 0 0 0 0 0 0 1 0 0 0 0 67 194 132 113 380 758 872 730 1121 1380 1651
218 593 358 287 78 1 1 1 0 0 51 0 35 34 233 277 237 285 222 314 97 3 0 0 0 0 0 0 0 0 0 3 3 0 2 57 117 91 140 303 718 1096 1214 1495 1740
0 4 243 236 292 304 334 100 3 4 27 183 179 226 374 598 596 882 644 519 438 76 0 0 0 0 0 0 0 0 0 0 0 0 35 78 112 113 341 146 665 1183 1407 1691 1549
CIN
0 0 0 0 0 0 0 0 0 0 0 0 0 0 0 0 0 0 0 0 0 0 0 0 0 0 0 0 -8 -2 -5 -1 -2 -1 0 -1 -1 0 -1 0 -1 0 0 -23 -57
0 0 0 0 0 0 0 0 0 0 0 0 0 0 0 0 0 0 0 0 0 0 0 0 0 0 0 0 -9 -1 -24 -1 -2 -33 -4 -1 -1 0 0 0 0 0 -26 -62 -71
0 0 0 0 0 0 0 0 0 0 0 0 0 0 0 0 0 0 0 0 0 0 0 0 0 0 -1 0 -14 -1 -1 -7 -10 -1 -41 -13 -5 -2 -1 0 0 0 -31 -72 -58
0 0 0 0 0 0 0 0 0 0 0 0 0 0 0 0 0 0 0 -567 -617 0 0 0 0 0 -1 -1 -1 -1 -14 -11 -41 -17 -2 -1 -1 0 -1 -10 -1 -1 -17 -33 -28
0 0 0 0 0 0 0 0 0 0 0 0 0 0 0 0 0 0 0 -376 0 0 0 0 0 -1 0 0 -1 -2 0 0 -9 -10 -1 -1 -2 -1 0 -6 -8 -2 -3 0 0
0 0 0 0 0 0 0 0 0 0 0 0 0 0 0 0 0 0 0 0 0 0 0 0 0 0 0 -1 0 -2 0 -1 -2 0 -5 -1 -2 0 -1 -7 -10 -10 -1 0 0
0 0 0 0 0 0 0 0 0 0 0 0 0 0 0 0 0 0 0 0 0 0 0 0 0 0 0 -1 0 0 0 0 -1 0 -2 -3 -1 -1 -5 -1 -9 -2 0 0 0
-1 -1 -1 0 0 0 0 0 0 0 0 0 0 0 0 0 0 0 0 0 0 0 0 0 0 0 0 0 0 0 -1 -1 -1 -5 -1 -10 -71 0 -5 -1 -1 -1 -10 -3 0
-1 -1 -1 -1 -1 -1 0 0 0 0 0 0 0 0 0 0 0 0 0 0 0 0 0 0 0 0 0 0 0 -1 -2 -1 -1 -4 -1 -5 0 -1 -5 0 -1 0 -1 -4 -1
-1 -1 -2 -1 -1 0 0 0 0 0 0 0 0 0 0 0 0 0 0 0 0 0 0 0 0 0 0 0 0 -1 -2 -5 0 -2 -3 -1 -1 0 -5 -2 0 0 0 0 -3
-2 -2 -2 -2 -3 0 0 0 0 0 0 0 0 0 0 0 0 0 0 0 0 0 0 0 0 0 0 0 -16 -15 -1 0 0 0 -1 0 0 -1 -1 -1 -4 0 0 0 0
-2 -2 -3 -3 -3 -2 0 0 0 0 0 0 0 0 0 0 0 0 0 0 0 0 0 0 0 0 -1 -1 0 0 0 -1 -11 -3 -1 -1 -1 -1 -1 -1 -1 -1 -1 -1 -1
-2 -3 -3 -5 0 0 0 0 0 0 0 0 0 0 0 0 0 0 0 0 0 0 0 0 0 0 0 0 0 0 -20 -9 -7 -9 -10 -7 -3 0 -1 -1 -6 -5 -4 -1 0
-2 -3 -4 -1 0 0 0 0 0 0 0 0 0 0 0 0 0 0 0 0 0 0 0 0 0 0 0 0 0 0 0 0 0 -25 -5 -28 -1 -452 -26 -1 -3 -4 -1 0 0
-1 -3 -3 -8 0 0 0 0 0 0 0 0 0 0 0 0 0 0 0 0 0 0 0 0 0 0 0 0 0 0 0 0 0 -30 -8 0 0 0 -3 -1 0 -1 -1 -1 0
-3 -1 -1 0 0 0 0 0 0 0 0 0 0 0 0 0 0 0 0 0 0 0 0 0 0 0 0 0 0 -1 0 0 -9 -10 -5 -2 -1 -2 -2 -105 -35 -1 -1 -5 0
-3 -2 0 0 0 0 0 0 0 0 0 0 0 0 0 0 0 0 0 0 0 0 0 0 0 0 0 0 0 0 0 -37 -1 0 0 -1 -2 0 -2 -3 -1 -2 -2 -2 -4
-1 0 0 0 0 0 0 0 0 0 0 0 0 0 0 0 0 0 0 0 0 0 0 0 0 0 0 0 0 0 0 -12 0 0 -3 -251 -1 -1 -13 0 0 0 -1 -2 -1
0 0 0 0 0 0 -37 0 0 -1 0 0 0 0 0 0 0 0 0 0 0 0 0 0 0 0 0 0 0 0 0 -33 0 0 0 -1 -2 0 -30 0 -1 -2 -2 -1 0
0 -164 -286 0 0 -286 -165 0 -1 -9 0 0 0 0 0 0 0 0 0 0 0 0 0 0 0 0 0 0 0 0 -12 -16 -4 0 -2 -1 -57 0 -6 -23 -1 -1 -1 -1 -2
0 -26 0 0 -51 -190 -96 -1 -1 0 0 0 0 0 0 0 0 0 0 0 0 0 0 0 0 0 0 0 0 0 -81 -52 0 -1 -1 -1 -2 -63 -11 -9 -7 -1 -1 0 -1
-36 -1 0 0 -120 -79 -32 0 0 0 0 0 0 0 0 0 0 0 0 0 0 0 0 0 0 0 0 0 0 0 0 -48 -5 -1 -2 0 -2 -3 -11 -31 0 -2 -1 -9 -13
-10 0 0 0 -7 0 -5 -1 0 0 0 0 0 0 0 0 0 0 0 0 0 0 0 0 0 0 0 0 0 0 0 -13 -8 0 -1 0 -1 -3 -2 0 0 -10 -12 -21 -25
-9 -32 0 0 -50 -16 -5 0 0 0 0 0 -1 0 0 0 0 0 0 0 0 0 -1 0 0 0 0 0 0 0 0 0 -1 0 0 0 -1 -14 -2 -1 -2 -3 -19 -19 -30
-6 -4 -14 -23 0 0 0 0 0 0 0 0 0 -7 -2 0 -4 0 0 -42 0 0 0 0 0 0 0 0 0 0 0 0 0 0 -3 0 -3 -2 0 -9 -17 -13 -15 -24 -38
-9 -1 0 0 -38 0 0 -1 0 0 -1 0 -8 -8 -1 0 -1 0 -1 -1 -12 -24 0 0 0 0 0 0 0 0 0 0 0 0 -6 -16 0 0 -1 -13 -10 -16 -14 -36 -54
0 -6 -17 -43 0 0 0 -3 0 0 -1 -1 -6 -1 -1 -8 -5 -19 -1 -1 -5 -19 0 0 0 0 0 0 0 0 0 0 0 0 -1 -7 0 -1 -3 -4 -4 -14 -29 -26 -39
Wind_Speed
13 13 13 13 13 13 13 13 13 13 13 13 14 14 16 17 22 10 12 4 5 9 10 16 16 12 7 3 3 8 2 5 9 10 10 8 12 6 4 8 8 4 11 24 24
14 14 14 14 14 13 13 13 13 13 14 14 14 14 15 15 14 16 3 5 4 6 12 12 10 8 4 3 5 5 3 8 8 12 13 6 9 9 10 10 9 9 17 22 23
14 15 14 14 15 14 14 13 13 13 14 15 14 13 14 16 10 5 8 5 4 9 15 14 12 14 3 5 2 2 9 5 3 10 9 11 9 3 5 8 9 13 17 21 22
14 14 15 15 15 15 15 15 15 14 14 14 14 14 14 11 5 9 3 4 7 11 14 14 12 13 6 8 3 4 4 2 5 7 3 7 8 7 7 7 5 16 18 21 20
14 13 14 15 16 16 16 16 16 15 15 15 13 12 11 10 11 10 5 6 11 12 15 12 12 4 6 2 6 4 5 5 7 5 2 5 3 9 5 5 3 16 18 19 18
14 13 13 14 16 17 17 17 17 16 16 14 12 12 10 14 5 3 2 5 10 13 14 13 8 6 4 2 6 4 2 5 7 6 6 7 8 8 10 7 7 13 16 16 17
13 14 13 14 16 17 17 17 18 17 14 11 8 9 11 10 2 5 6 8 9 15 14 11 4 14 2 7 2 4 10 7 7 5 2 5 9 9 11 9 10 12 12 14 13
13 14 14 15 16 17 16 17 18 15 10 7 7 11 9 5 6 8 8 7 9 9 12 4 7 13 9 2 10 12 10 12 12 6 6 11 14 9 9 8 10 10 11 12 14
13 13 14 15 16 16 16 18 17 9 5 7 9 10 11 5 11 13 11 11 12 10 5 3 10 15 10 12 13 9 9 2 12 8 3 6 9 6 6 7 11 10 12 12 13
13 13 13 14 15 16 20 20 5 6 8 10 9 9 8 11 11 12 11 5 13 12 10 12 10 13 13 15 13 10 11 14 7 11 7 9 12 9 8 6 7 12 12 13 14
13 13 14 14 13 13 16 6 8 10 15 13 7 6 6 6 4 12 12 14 13 14 16 18 15 15 19 13 5 7 5 6 5 5 10 11 9 5 12 9 8 10 14 12 13
12 13 14 14 13 10 10 9 10 8 9 23 12 10 3 4 11 15 15 15 15 17 19 16 19 19 13 5 6 7 9 11 8 5 7 13 8 11 7 7 8 11 10 11 13
12 13 13 14 14 9 11 13 6 8 9 16 19 15 12 11 12 18 20 18 17 20 19 16 20 21 8 9 12 10 16 4 2 8 14 12 16 11 12 10 8 9 9 10 15
13 13 12 14 9 2 9 10 10 6 8 15 16 13 16 13 11 19 19 16 12 18 19 17 15 21 11 15 14 17 6 0 9 12 6 12 5 12 21 8 13 9 10 12 10
13 12 11 7 13 10 10 3 7 6 9 21 19 15 17 16 13 17 19 16 15 15 14 18 19 22 17 17 15 12 7 9 10 12 18 18 9 12 9 2 6 4 7 5 9
14 13 9 8 9 12 4 4 8 9 9 11 13 16 20 21 14 22 19 17 14 15 18 19 15 13 16 17 16 11 9 10 13 15 15 11 15 2 3 11 22 4 4 0 6
15 12 8 11 1 8 8 8 9 13 10 13 17 22 22 16 15 16 22 20 17 16 16 18 17 17 16 18 18 8 13 13 13 12 11 13 3 4 8 7 9 10 6 7 6
16 10 11 12 7 7 7 10 13 16 10 11 16 21 22 22 19 20 19 20 22 19 15 17 17 18 18 18 16 19 18 15 5 8 5 12 10 4 8 8 4 4 3 10 11
16 8 7 9 8 6 10 13 13 6 5 7 14 20 20 22 14 17 20 20 22 21 20 16 19 21 18 16 19 16 18 21 20 15 9 7 5 6 10 3 4 4 1 6 12
8 8 6 9 10 8 10 17 3 5 9 14 15 17 20 23 15 20 20 20 20 23 20 5 13 14 19 16 19 23 12 13 9 12 13 7 3 4 7 1 7 3 4 6 13
8 6 7 9 8 9 12 16 1 5 6 12 15 16 17 22 17 19 17 11 20 21 18 15 11 15 13 20 18 16 14 14 16 12 8 5 2 6 4 1 4 6 9 6 12
8 3 8 9 9 11 14 13 6 6 11 7 11 9 16 18 20 17 15 17 15 15 20 18 10 13 17 18 19 18 20 18 11 14 10 13 6 8 8 4 4 6 7 4 12
7 7 7 9 9 11 15 2 7 7 10 6 11 11 8 11 14 16 15 11 5 16 18 15 9 12 15 15 20 20 22 21 22 20 13 9 6 4 8 9 4 6 3 6 11
7 6 7 9 13 16 15 11 15 15 11 8 7 3 9 9 9 12 9 7 9 14 6 12 17 14 11 13 16 18 18 19 16 12 14 12 12 11 6 8 9 7 1 9 11
7 8 4 10 13 12 7 5 14 11 11 7 9 13 12 10 12 9 12 14 10 9 10 14 18 17 17 18 12 17 19 23 21 21 20 17 16 11 12 11 8 9 6 10 13
7 7 6 10 4 8 7 11 13 13 4 11 14 17 6 12 7 7 12 10 11 15 16 18 15 15 18 12 17 18 15 18 25 22 19 19 18 16 2 3 3 4 5 10 14
7 8 7 11 10 12 4 5 9 7 6 9 7 4 9 6 8 6 15 8 3 12 16 17 15 14 14 16 17 20 19 18 18 19 12 16 16 14 6 3 6 3 6 10 14
Wind_Direction
357 351 350 347 345 344 343 340 338 336 335 331 325 319 313 313 300 233 257 0 16 343 311 268 265 262 254 187 272 277 281 127 97 118 125 162 118 85 113 137 59 30 91 136 138
351 351 350 345 345 341 337 336 334 332 329 327 323 316 310 317 285 261 88 52 0 313 268 269 302 311 204 151 208 127 231 81 62 104 119 135 91 140 144 120 104 92 97 135 150
350 348 346 344 343 340 335 331 330 328 327 323 318 311 307 310 270 210 38 7 293 254 263 285 286 275 262 218 151 346 86 125 129 53 101 103 108 62 110 90 113 135 139 150 159
348 345 343 341 341 338 333 330 328 325 323 319 314 311 307 264 236 75 8 270 219 237 252 264 254 254 271 158 150 130 89 50 69 119 141 140 105 123 20 77 66 128 153 161 169
344 342 341 339 338 336 332 328 325 322 317 313 309 309 285 224 255 117 233 145 189 207 230 242 261 274 224 163 185 184 139 156 143 143 272 71 123 82 128 121 148 131 157 171 175
339 338 337 337 336 334 330 325 320 315 309 303 299 299 244 250 72 129 260 215 226 208 221 242 271 334 302 147 280 88 202 183 161 162 166 256 145 232 113 138 128 149 167 179 178
336 334 334 337 334 333 328 322 315 307 297 288 279 273 262 253 16 194 237 242 211 213 222 230 270 260 123 170 98 203 211 199 178 169 216 252 238 196 114 146 146 169 173 177 183
333 333 332 333 329 329 322 315 310 299 281 259 251 256 264 82 270 218 231 186 195 220 253 196 261 280 243 103 214 232 243 202 142 184 142 272 160 121 141 183 164 178 172 179 185
328 329 329 326 325 324 317 311 301 283 235 222 234 235 252 121 214 213 215 184 188 189 219 253 256 244 182 229 208 202 228 231 186 183 208 245 309 115 160 216 170 186 180 183 185
326 325 324 323 322 327 317 295 304 242 215 215 267 249 237 221 178 178 199 205 187 181 186 210 222 227 232 213 214 222 192 190 248 166 220 250 237 170 164 233 235 178 201 183 190
324 322 321 316 319 328 318 227 207 193 217 231 182 252 127 127 165 192 181 194 196 195 202 201 216 222 212 227 61 232 296 289 157 91 276 234 264 276 175 187 220 245 188 198 199
319 317 313 316 313 309 284 254 37 354 287 217 240 258 262 257 184 193 187 195 198 203 212 180 220 220 254 97 232 234 220 232 139 178 245 274 242 256 222 226 235 214 219 200 207
314 312 314 315 313 275 238 252 353 313 259 195 208 217 194 208 209 185 194 215 198 210 204 211 208 232 170 199 229 226 246 60 70 259 249 237 247 250 213 203 216 242 258 215 202
310 312 312 315 288 325 236 220 245 280 268 168 192 204 194 211 229 179 201 210 209 215 213 233 217 225 183 224 222 242 181 13 267 265 272 291 267 131 252 197 183 226 209 205 233
306 305 303 295 321 247 42 237 229 239 250 146 153 130 171 204 157 186 190 210 228 217 213 213 234 204 207 218 222 265 121 258 269 285 281 222 246 137 309 307 228 172 174 233 192
302 298 297 218 228 270 273 222 229 226 244 150 144 185 180 213 181 156 188 221 237 224 217 242 216 198 220 217 233 243 269 258 244 247 248 247 264 201 80 161 250 125 125 305 191
296 283 245 284 342 185 214 211 210 239 135 152 172 175 189 184 184 175 189 196 207 206 204 226 220 218 217 227 223 209 235 242 222 226 256 26 280 344 329 336 354 7 335 143 159
302 276 194 242 230 238 216 218 242 212 202 145 177 175 195 181 191 184 190 200 215 216 193 206 200 215 220 234 215 207 231 250 234 298 340 168 241 65 353 312 319 266 260 141 170
316 200 180 188 230 217 223 222 221 245 101 191 180 187 196 181 191 190 202 207 202 220 240 196 229 179 210 216 239 205 227 257 286 287 260 299 282 174 86 279 184 102 305 197 168
260 213 126 141 181 224 234 251 302 22 319 290 199 196 193 179 206 200 195 205 210 213 243 268 220 209 187 218 225 250 215 226 232 273 275 239 295 323 87 58 327 339 275 191 158
244 212 117 162 189 225 229 237 185 170 272 265 247 190 203 185 201 189 189 200 217 185 231 255 244 174 209 208 214 213 241 247 268 265 292 283 59 112 128 177 353 301 335 203 161
275 232 144 181 208 217 231 244 4 204 201 267 310 297 227 189 195 198 220 215 196 210 203 229 219 245 197 211 225 222 219 238 229 225 260 296 290 265 90 3 316 319 351 158 157
256 106 168 222 233 204 237 286 229 241 230 210 223 260 287 179 194 225 207 168 160 217 199 213 242 231 210 195 212 233 218 229 240 257 257 267 294 66 154 201 125 15 54 148 160
275 158 155 211 269 288 207 209 218 202 276 292 304 242 219 214 201 195 187 140 184 230 90 237 236 244 239 225 196 216 238 252 257 256 257 243 267 302 27 41 32 5 201 165 175
244 317 62 186 218 237 269 275 213 227 210 207 225 240 212 202 194 221 213 138 202 157 191 231 230 249 255 276 249 238 215 230 242 252 265 280 299 315 45 40 13 309 151 170 181
314 349 337 281 23 210 157 228 234 218 239 208 252 189 228 258 225 193 197 162 181 191 217 212 245 238 255 260 259 265 266 234 226 238 247 262 280 302 59 16 349 319 184 191 185
6 287 271 265 208 216 215 209 218 258 178 301 311 334 242 339 44 347 332 320 78 186 205 225 231 236 241 245 243 243 242 245 255 258 249 249 258 263 313 323 343 306 229 198 191